User: anonymous
Location: Mactaquac Provincial Park
(45.9573°N, 66.8897°W)
Time: 05:43:05
(UTC-03:00)
Language:

Cosmos 1766 - Orbit

View from above orbital plane
View from above orbital plane
View from above satellite
View from above satellite

Ground track
Ground track

The orbit data is extracted from the following two-line orbital elements,

1 16881U 86055A   14292.44747869  .00006810  00000-0  46210-3 0  9952
2 16881 082.5107 252.3156 0013402 149.1098 211.0921 15.06197175534904
Epoch (UTC): 19 October 2014 10:44:22
Eccentricity: 0.0013402
inclination: 82.5107°
perigee height: 538 km
apogee height: 557 km
right ascension of ascending node: 252.3156°
argument of perigee: 149.1098°
revolutions per day: 15.06197175
mean anomaly at epoch: 211.0921°
orbit number at epoch: 53490

The dashed part of the orbit path shows where the satellite is in the earth's shadow,  

DLR